Regional Weather Roundup
Issued by NWS

Home | Current Version | Previous Version | Graphics & Text | Print | Product List | Glossary On
Versions: 1 2 3 4 5 6 7 8 9 10 11 12 13 14 15 16 17 18 19 20 21 22 23 24 25 26 27 28 29 30 31 32
000
ASUS45 KGTF 052210
RWRMT
MONTANA HOURLY WEATHER ROUNDUP
NATIONAL WEATHER SERVICE GREAT FALLS MT
400 PM MDT TUE MAY 05 2015

NOTE: "FAIR" INDICATES FEW OR NO CLOUDS BELOW 12000 FEET WITH NO
SIGNIFICANT WEATHER AND/OR OBSTRUCTIONS TO VISIBILITY.

MTZ001>007-043-052300-
WEST OF THE DIVIDE

CITY           SKY/WX    TMP DP  RH WIND       PRES   REMARKS
KALISPELL      CLOUDY    66  27  23 SW12G18   29.81S
MISSOULA       MOSUNNY   60  33  36 W13       29.86F
BUTTE          CLOUDY    57  35  43 NW7       29.82R
DEER LODGE       N/A     57  43  58 W12       29.84R
EUREKA           N/A     63  19  19 SW16G22   29.83S
HAMILTON         N/A     59  36  41 N16       29.81R
LIBBY            N/A     61  25  25 S8G16     29.88S
$$

MTZ008-052>055-052300-
SOUTHWEST MONTANA

CITY           SKY/WX    TMP DP  RH WIND       PRES   REMARKS
BOZEMAN        CLOUDY    61  43  51 SE20      29.78S
DILLON         CLOUDY    53  42  66 E18       29.79F
$$

MTZ009-010-012-014-046-048-049-054-052300-
EAST SLOPES AND CENTRAL MONTANA

CITY           SKY/WX    TMP DP  RH WIND       PRES   REMARKS
CUT BANK       MOSUNNY   68  34  28 W25G32    29.73S
GREAT FALLS    PTSUNNY   73  34  23 VRB6      29.68F
HELENA         LGT RAIN  61  47  59 E9        29.76F
$$

MTZ011-013-016-021-045-047-050-051-052300-
NORTH CENTRAL MONTANA

CITY           SKY/WX    TMP DP  RH WIND       PRES   REMARKS
HAVRE          CLOUDY    77  37  23 SE6       29.65F
LEWISTOWN      LGT RAIN  64  49  57 E6        29.74R
CHINOOK          N/A     79  46  31 W10       29.63F
FORT BENTON      N/A     77  34  20 NE3       29.67
$$

MTZ017>020-022>042-056>058-061-062-052300-
EASTERN PLAINS

CITY           SKY/WX    TMP DP  RH WIND       PRES   REMARKS
BAKER          SUNNY     72  49  44 SE28G37   29.80F
BILLINGS       PTSUNNY   79  36  21 SE17      29.66F
GLASGOW        PTSUNNY   77  40  26 SE13      29.68F
JORDAN           N/A     83  36  18 SE8G17    29.66F
LIVINGSTON     CLOUDY    60  43  53 SW20      29.78F
MILES CITY     SUNNY     81  43  26 S17G24    29.68F
SIDNEY         MOSUNNY   82  46  28 SE29      29.73F
WOLF POINT     PTSUNNY   82  44  26 SE8       29.69F
BIG TIMBER       N/A     64  39  39 W21G28    29.73F
FORSYTH          N/A     81  45  28 SE10G17   29.65F
PLENTYWOOD       N/A     79  43  27 SE18      29.74F
POPLAR           N/A     81  45  28 E8        29.70F
$$

REGIONAL REPORTS...DAKOTAS

CITY           SKY/WX    TMP DP  RH WIND       PRES   REMARKS
WILLISTON      MOSUNNY   81  43  26 S15       29.76F
MINOT          SUNNY     78  29  16 SE21G29   29.86F
DICKINSON      MOSUNNY   71  49  45 S30G36    29.83F
BEACH          FAIR      73  48  40 SE24G33   29.80S
CROSBY         FAIR      77  43  29 S22G29    29.78F
WATFORD CITY   FAIR      77  46  33 S23G32    29.77F
BISMARCK       SUNNY     78  34  20 S23G31    29.89F
GRAND FORKS    MOSUNNY   79  22  12 S22G29    29.98F
FARGO          SUNNY     79  33  19 S17G29    29.98F
BUFFALO SD       N/A     67  50  54 SE25G38   29.77F
RAPID CITY     CLOUDY    62  50  64 S15       29.88F
$$

REGIONAL REPORTS...WYOMING/IDAHO/WASHINGTON

CITY           SKY/WX    TMP DP  RH WIND       PRES   REMARKS
GILLETTE       SUNNY     69  47  45 S23G33    29.79F
SHERIDAN       PTSUNNY   71  44  37 SE14      29.72F
BUFFALO WY     PTSUNNY   68  43  40 SE10G17   29.79F
CODY           CLOUDY    70  37  30 S14       29.74F
YELLOWSTONE LA   N/A     53  31  42 VRB3      29.90F
IDAHO FALLS    CLOUDY    68  41  37 NW7       29.76S
SALMON           N/A     63  45  51 SE5       29.73F
BOISE          SUNNY     69  15  12 NW17G28   29.82F
SPOKANE        PTSUNNY   59  24  26 SW22G30   29.93S
$$

REGIONAL REPORTS...ALBERTA

CITY           SKY/WX    TMP DP  RH WIND       PRES   REMARKS
EDMONTON       CLOUDY    52  36  54 NE16      29.75S
CALGARY        CLOUDY    66  32  28 NE16G23   29.64F
LETHBRIDGE     MOSUNNY   70  30  23 SW16G31   29.68F
MEDICINE HAT   PTSUNNY   73  37  27 S10       29.65F
$$

REGIONAL REPORTS...SASKATCHEWAN

CITY           SKY/WX    TMP DP  RH WIND       PRES   REMARKS
SWIFT CURRENT  PTSUNNY   73  37  27 SE14G25   29.66F
REGINA         MOSUNNY   81  39  22 SE16G25   29.72F
SASKATOON      PTSUNNY   70  45  40 E9        29.73F
$$



USA.gov is the U.S. government's official web portal to all federal, state and local government web resources and services.